DW9346 Weather Reports


Display with metric or nautical units.
time (UTC)temp
F
wind
direction
speed
MPH
gust
MPH
rain 1hr
in
rain 24hr
in
rain mn
in
humidity
%
barometer
mb
20190716020704 65 238 0.0 0.0 0.01 0.02 0.02 92 1016.2
20190716020204 65 238 0.0 1.0 0.01 0.02 0.02 91 1016.3
20190716015704 65 238 0.0 2.0 0.01 0.02 0.02 90 1016.3
20190716015204 66 238 0.0 2.0 0.01 0.02 0.02 92 1016.3
20190716014704 66 238 0.0 2.0 0.01 0.02 0.02 93 1016.3
20190716014205 66 238 0.0 3.0 0.01 0.02 0.02 91 1016.3
20190716013704 66 238 0.0 6.0 0.00 0.01 0.01 90 1016.3
20190716013204 66 238 1.0 6.0 0.00 0.01 0.01 88 1016.3
20190716012704 66 270 1.0 6.0 0.00 0.01 0.01 86 1016.4
20190716012204 66 246 1.0 3.0 0.00 0.01 0.01 85 1016.4
20190716011704 66 315 0.0 3.0 0.00 0.01 0.01 84 1016.4
20190716011204 66 315 1.0 3.0 0.00 0.01 0.01 84 1016.3
20190716010704 65 285 1.0 3.0 0.00 0.01 0.01 86 1016.3
20190716010204 65 281 0.0 6.0 0.00 0.01 0.01 86 1016.3
20190716005704 65 187 1.0 6.0 0.00 0.01 0.01 86 1016.3
20190716005205 65 194 2.0 6.0 0.00 0.01 0.01 87 1016.3
20190716004703 65 163 2.0 6.0 0.00 0.01 0.01 87 1016.4
20190716004205 65 160 2.0 6.0 0.00 0.01 0.01 87 1016.4
20190716003704 65 194 3.0 6.0 0.00 0.01 0.01 86 1016.4
20190716003203 65 182 2.0 6.0 0.00 0.01 0.01 86 1016.4
20190716002704 65 169 2.0 5.0 0.00 0.01 0.01 87 1016.5
20190716002204 65 150 3.0 5.0 0.00 0.01 0.01 86 1016.6
20190716001703 65 170 3.0 5.0 0.00 0.01 0.01 86 1016.6
20190716001204 65 147 3.0 5.0 0.00 0.01 0.01 86 1016.6
20190716000704 65 159 3.0 5.0 0.00 0.01 0.01 86 1016.6
20190716000204 66 161 3.0 5.0 0.00 0.01 0.01 85 1016.6
20190715235704 66 156 2.0 4.0 0.00 0.01 0.01 85 1016.7
20190715235203 66 162 1.0 4.0 0.00 0.01 0.01 85 1016.7
20190715234704 66 188 1.0 4.0 0.00 0.01 0.01 86 1016.7
20190715234203 66 177 0.0 2.0 0.00 0.01 0.01 86 1016.7
20190715233704 66 167 0.0 2.0 0.00 0.01 0.01 86 1016.8
20190715233204 66 167 0.0 2.0 0.00 0.01 0.01 85 1016.8
20190715232704 66 167 1.0 2.0 0.00 0.01 0.01 84 1016.9
20190715232204 66 167 1.0 3.0 0.00 0.01 0.01 84 1016.9
20190715231704 65 167 2.0 4.0 0.00 0.01 0.01 86 1017.0
20190715231204 65 167 2.0 4.0 0.00 0.01 0.01 87 1017.1
20190715230704 65 166 2.0 4.0 0.00 0.01 0.01 88 1017.0
20190715230204 65 163 2.0 5.0 0.00 0.01 0.01 89 1017.0
20190715225704 65 138 2.0 5.0 0.00 0.01 0.01 88 1017.1
20190715225205 65 150 3.0 6.0 0.00 0.01 0.01 89 1017.1
20190715224704 65 156 3.0 6.0 0.00 0.01 0.01 88 1017.2
20190715224204 65 155 4.0 6.0 0.00 0.01 0.01 89 1017.2
20190715223704 65 167 3.0 6.0 0.00 0.01 0.01 89 1017.1
20190715223204 65 161 3.0 6.0 0.00 0.01 0.01 89 1017.2
20190715222704 65 160 3.0 5.0 0.00 0.01 0.01 88 1017.2
20190715222205 65 158 3.0 6.0 0.00 0.01 0.01 88 1017.2
20190715221703 65 130 3.0 6.0 0.00 0.01 0.01 88 1017.3
20190715221204 65 163 3.0 6.0 0.00 0.01 0.01 89 1017.3
20190715220703 65 200 3.0 5.0 0.00 0.01 0.01 89 1017.3
20190715220204 65 168 2.0 5.0 0.00 0.01 0.01 90 1017.4
20190715215704 65 172 2.0 4.0 0.00 0.01 0.01 90 1017.4
20190715215204 64 164 1.0 4.0 0.00 0.01 0.01 90 1017.4
20190715214704 64 147 1.0 4.0 0.00 0.01 0.01 90 1017.4
20190715214204 64 172 1.0 4.0 0.00 0.01 0.01 90 1017.4
20190715213704 64 161 1.0 4.0 0.00 0.01 0.01 90 1017.5
20190715213204 64 159 1.0 4.0 0.00 0.01 0.01 90 1017.5
20190715212704 64 161 1.0 5.0 0.00 0.01 0.01 90 1017.5
20190715212205 64 140 2.0 5.0 0.00 0.01 0.01 90 1017.5
20190715211705 64 161 2.0 5.0 0.00 0.01 0.01 90 1017.6
20190715211204 64 148 2.0 5.0 0.00 0.01 0.01 90 1017.6
20190715210704 65 167 2.0 5.0 0.00 0.01 0.01 90 1017.6
20190715210204 65 165 2.0 5.0 0.00 0.01 0.01 89 1017.6
20190715205704 65 155 3.0 5.0 0.00 0.01 0.01 89 1017.6
20190715205204 64 163 3.0 5.0 0.00 0.01 0.01 90 1017.6
20190715204705 64 152 3.0 5.0 0.00 0.01 0.01 89 1017.6
20190715204204 64 159 2.0 4.0 0.00 0.01 0.01 89 1017.6
20190715203704 64 155 1.0 3.0 0.00 0.01 0.01 89 1017.7
20190715203205 64 159 1.0 3.0 0.00 0.01 0.01 89 1017.7
20190715202704 64 155 1.0 3.0 0.00 0.01 0.01 89 1017.7
20190715202204 64 148 1.0 4.0 0.00 0.01 0.01 89 1017.8
20190715201704 64 157 1.0 4.0 0.00 0.01 0.01 89 1017.8
20190715201205 64 167 1.0 4.0 0.00 0.01 0.01 89 1017.8
20190715200704 64 136 1.0 4.0 0.00 0.01 0.01 89 1017.8
20190715200204 64 161 1.0 6.0 0.00 0.01 0.01 90 1017.8
20190715195704 64 150 1.0 6.0 0.00 0.01 0.01 89 1017.8
20190715195204 64 146 2.0 6.0 0.00 0.01 0.01 90 1017.8
20190715194704 64 143 1.0 4.0 0.00 0.01 0.01 90 1017.9
20190715194204 64 145 1.0 4.0 0.00 0.01 0.01 90 1017.9
20190715193704 63 144 1.0 4.0 0.00 0.01 0.01 90 1017.8
20190715193204 63 138 1.0 4.0 0.00 0.01 0.01 90 1017.9
20190715192704 63 139 1.0 4.0 0.00 0.01 0.01 91 1017.9
20190715192204 63 154 1.0 4.0 0.00 0.01 0.01 91 1017.9
20190715191704 63 140 1.0 4.0 0.00 0.01 0.01 90 1018.0
20190715191204 63 148 1.0 4.0 0.00 0.01 0.01 91 1018.1
20190715190704 63 153 1.0 4.0 0.00 0.01 0.01 92 1018.1
20190715190204 63 133 1.0 4.0 0.00 0.01 0.01 91 1018.1
20190715185704 63 136 2.0 4.0 0.00 0.01 0.01 92 1017.9
20190715185203 63 157 2.0 4.0 0.00 0.01 0.01 92 1017.9
20190715184704 63 182 1.0 4.0 0.00 0.01 0.01 92 1017.9
20190715184204 63 150 1.0 3.0 0.01 0.01 0.01 91 1017.8
20190715183704 64 143 0.0 2.0 0.01 0.01 0.01 91 1017.9
20190715183205 64 134 0.0 1.0 0.01 0.01 0.01 91 1017.8
20190715182704 64 149 0.0 1.0 0.01 0.01 0.01 91 1017.8
20190715182204 64 161 0.0 2.0 0.01 0.01 0.01 92 1017.8
20190715181704 64 156 0.0 2.0 0.01 0.01 0.01 94 1017.9
20190715181204 63 159 0.0 2.0 0.01 0.01 0.01 94 1017.8
20190715180703 63 150 0.0 2.0 0.01 0.01 0.01 94 1017.9
20190715180204 63 148 0.0 2.0 0.01 0.01 0.01 95 1017.8
20190715175703 63 153 0.0 2.0 0.01 0.01 0.01 94 1017.9
20190715175204 63 146 0.0 4.0 0.01 0.01 0.01 94 1017.8
20190715174704 63 144 1.0 4.0 0.01 0.01 0.01 94 1017.8
20190715174205 63 155 1.0 2.0 0.00 0.00 0.00 94 1017.7
20190715173704 63 156 0.0 2.0 0.00 0.00 0.00 94 1017.8
20190715173204 63 162 0.0 2.0 0.00 0.00 0.00 94 1017.7
20190715172703 63 153 0.0 1.0 0.00 0.00 0.00 94 1017.8
20190715172204 63 151 0.0 1.0 0.00 0.00 0.00 94 1017.7
20190715171704 63 155 0.0 1.0 0.00 0.00 0.00 93 1017.7
20190715171204 63 155 0.0 2.0 0.00 0.00 0.00 94 1017.7
20190715170704 63 157 0.0 2.0 0.00 0.00 0.00 94 1017.6
20190715170204 63 157 0.0 2.0 0.00 0.00 0.00 94 1017.7
20190715165704 62 154 0.0 3.0 0.00 0.00 0.00 94 1017.6
20190715165204 63 156 0.0 3.0 0.00 0.00 0.00 93 1017.6
20190715164704 63 167 1.0 3.0 0.00 0.00 0.00 93 1017.6
20190715164204 63 154 1.0 3.0 0.00 0.00 0.00 93 1017.5
20190715163704 63 170 1.0 3.0 0.00 0.00 0.00 93 1017.5
20190715163204 63 157 1.0 3.0 0.00 0.00 0.00 92 1017.5
20190715162704 63 159 1.0 3.0 0.00 0.00 0.00 92 1017.4
20190715162204 63 153 0.0 3.0 0.00 0.00 0.00 93 1017.4
20190715161704 63 169 1.0 3.0 0.00 0.00 0.00 93 1017.4
20190715161205 62 169 1.0 3.0 0.00 0.00 0.00 93 1017.4
20190715160704 62 169 0.0 3.0 0.00 0.00 0.00 93 1017.4
20190715160204 62 157 1.0 3.0 0.00 0.00 0.00 93 1017.4
20190715155704 62 164 0.0 2.0 0.00 0.00 0.00 93 1017.4
20190715155204 62 146 0.0 1.0 0.00 0.00 0.00 93 1017.4
20190715154704 62 146 0.0 0.0 0.00 0.00 0.00 93 1017.4
20190715154204 62 146 0.0 0.0 0.00 0.00 0.00 92 1017.4
20190715153704 62 146 0.0 1.0 0.00 0.00 0.00 92 1017.3
20190715153204 62 146 0.0 1.0 0.00 0.00 0.00 93 1017.3
20190715152704 62 146 0.0 1.0 0.00 0.00 0.00 92 1017.4
20190715152204 62 146 0.0 1.0 0.00 0.00 0.00 93 1017.4
20190715151704 62 146 0.0 2.0 0.00 0.00 0.00 93 1017.4
20190715151204 62 146 0.0 2.0 0.00 0.00 0.00 93 1017.4
20190715150704 62 146 0.0 2.0 0.00 0.00 0.00 93 1017.4
20190715150204 62 142 0.0 1.0 0.00 0.00 0.00 93 1017.4
20190715145704 61 142 0.0 0.0 0.00 0.00 0.00 93 1017.4
20190715145204 61 142 0.0 0.0 0.00 0.00 0.00 93 1017.4
20190715144704 61 142 0.0 0.0 0.00 0.00 0.00 93 1017.4
20190715144205 61 142 0.0 1.0 0.00 0.00 0.00 93 1017.3
20190715143704 61 142 0.0 1.0 0.00 0.00 0.00 93 1017.4
20190715143205 61 142 0.0 0.0 0.00 0.00 0.00 93 1017.4
20190715142704 61 164 0.0 0.0 0.00 0.00 0.00 93 1017.4
20190715142204 61 164 0.0 0.0 0.00 0.00 0.00 92 1017.3
20190715141704 61 164 0.0 0.0 0.00 0.00 0.00 92 1017.3
20190715141205 61 164 0.0 0.0 0.00 0.00 0.00 92 1017.2
20190715140704 61 164 0.0 0.0 0.00 0.00 0.00 92 1017.1
20190715140204 61 164 0.0 0.0 0.00 0.00 0.00 92 1017.1
20190715135704 61 164 0.0 0.0 0.00 0.00 0.00 92 1017.2
20190715135204 61 164 0.0 0.0 0.00 0.00 0.00 92 1017.2
20190715134703 61 164 0.0 0.0 0.00 0.00 0.00 92 1017.1
20190715134204 61 164 0.0 0.0 0.00 0.00 0.00 92 1017.1
20190715133704 61 164 0.0 0.0 0.00 0.00 0.00 92 1017.1
20190715133204 61 164 0.0 0.0 0.00 0.00 0.00 92 1017.1
20190715132704 61 164 0.0 0.0 0.00 0.00 0.00 92 1017.1
20190715132204 61 164 0.0 0.0 0.00 0.00 0.00 93 1017.1
20190715131704 61 164 0.0 0.0 0.00 0.00 0.00 93 1017.1
20190715131204 61 164 0.0 0.0 0.00 0.00 0.00 92 1017.1
20190715130704 61 164 0.0 0.0 0.00 0.00 0.00 92 1017.0
20190715130204 61 164 0.0 0.0 0.00 0.00 0.00 92 1017.0
20190715125704 61 164 0.0 0.0 0.00 0.00 0.00 92 1017.0
20190715125204 61 163 0.0 0.0 0.00 0.00 0.00 92 1017.0
20190715124705 61 163 0.0 0.0 0.00 0.00 0.00 92 1017.0
20190715124204 61 163 0.0 0.0 0.00 0.00 0.00 92 1016.9
20190715123704 61 163 0.0 1.0 0.00 0.00 0.00 93 1016.8
20190715123204 61 163 0.0 1.0 0.00 0.00 0.00 93 1016.8
20190715122704 61 163 0.0 1.0 0.00 0.00 0.00 92 1016.8
20190715122204 61 163 0.0 0.0 0.00 0.00 0.00 92 1016.6
20190715121704 61 163 0.0 0.0 0.00 0.00 0.00 92 1016.7
20190715121204 61 163 0.0 2.0 0.00 0.00 0.00 92 1016.7
20190715120704 61 163 0.0 3.0 0.00 0.00 0.00 92 1016.7
20190715120204 61 163 0.0 3.0 0.00 0.00 0.00 92 1016.7
20190715115704 61 163 0.0 3.0 0.00 0.00 0.00 92 1016.8
20190715115204 61 162 0.0 1.0 0.00 0.00 0.00 92 1016.8
20190715114704 61 276 0.0 3.0 0.00 0.00 0.00 92 1016.8
20190715114204 61 275 0.0 3.0 0.00 0.00 0.00 92 1016.8
20190715113704 61 275 1.0 3.0 0.00 0.00 0.00 92 1016.7
20190715113203 61 275 1.0 3.0 0.00 0.00 0.00 93 1016.6
20190715112704 61 275 2.0 4.0 0.00 0.00 0.00 92 1016.6
20190715112205 61 275 2.0 4.0 0.00 0.00 0.00 92 1016.6
20190715111704 61 275 2.0 3.0 0.00 0.00 0.00 92 1016.6
20190715111204 61 278 2.0 3.0 0.00 0.00 0.00 91 1016.7
20190715110704 62 277 2.0 3.0 0.00 0.00 0.00 91 1016.7
20190715110204 62 278 2.0 4.0 0.00 0.00 0.00 90 1016.6
20190715105704 62 278 2.0 4.0 0.00 0.00 0.00 89 1016.6
20190715105203 62 278 2.0 3.0 0.00 0.00 0.00 88 1016.6
20190715104704 62 266 1.0 3.0 0.00 0.00 0.00 88 1016.5
20190715104204 62 296 1.0 3.0 0.00 0.00 0.00 87 1016.5
20190715103704 62 296 1.0 3.0 0.00 0.00 0.00 87 1016.6
20190715103204 62 279 1.0 3.0 0.00 0.00 0.00 86 1016.7
20190715102704 62 279 2.0 3.0 0.00 0.00 0.00 87 1016.7
20190715102204 62 278 2.0 3.0 0.00 0.00 0.00 86 1016.6
20190715101704 62 278 1.0 3.0 0.00 0.00 0.00 87 1016.6
20190715101204 62 280 0.0 0.0 0.00 0.00 0.00 87 1016.6
20190715100704 63 277 0.0 0.0 0.00 0.00 0.00 87 1016.7
20190715100204 63 281 0.0 0.0 0.00 0.00 0.00 87 1016.7
20190715095704 63 281 0.0 1.0 0.00 0.00 0.00 86 1016.6
20190715095204 63 205 0.0 1.0 0.00 0.00 0.00 85 1016.6
20190715094704 64 201 0.0 1.0 0.00 0.00 0.00 85 1016.7
20190715094204 64 296 0.0 0.0 0.00 0.00 0.00 83 1016.5
20190715093704 64 296 0.0 0.0 0.00 0.00 0.00 83 1016.3
20190715093204 64 296 0.0 0.0 0.00 0.00 0.00 81 1016.3
20190715092704 64 296 0.0 0.0 0.00 0.00 0.00 81 1016.4
20190715092205 64 296 0.0 1.0 0.00 0.00 0.00 81 1016.4
20190715091703 64 296 0.0 2.0 0.00 0.00 0.00 80 1016.5
20190715091204 65 296 0.0 2.0 0.00 0.00 0.00 81 1016.6
20190715090704 65 296 0.0 2.0 0.00 0.00 0.00 80 1016.6
20190715090204 65 296 0.0 2.0 0.00 0.00 0.00 79 1016.6
20190715085704 65 296 1.0 2.0 0.00 0.00 0.00 79 1016.6
20190715085204 65 296 1.0 2.0 0.00 0.00 0.00 80 1016.6
20190715084703 65 296 1.0 2.0 0.00 0.00 0.00 80 1016.5
20190715084204 65 292 0.0 2.0 0.00 0.00 0.00 80 1016.7
20190715083704 65 186 0.0 2.0 0.00 0.00 0.00 79 1016.9
20190715083204 65 162 0.0 2.0 0.00 0.00 0.00 80 1016.6
20190715082704 65 162 0.0 0.0 0.00 0.00 0.00 81 1016.6
20190715082204 65 144 0.0 1.0 0.00 0.00 0.00 78 1016.6
20190715081704 65 80 0.0 1.0 0.00 0.00 0.00 79 1016.3
20190715081204 65 89 0.0 1.0 0.00 0.00 0.00 81 1016.0
20190715080704 65 89 0.0 1.0 0.00 0.00 0.00 80 1016.3
20190715080204 65 97 0.0 1.0 0.00 0.00 0.00 79 1016.3
20190715075704 65 100 0.0 0.0 0.00 0.00 0.00 79 1016.4
20190715075204 65 100 0.0 1.0 0.00 0.00 0.00 78 1016.6
20190715074704 65 100 0.0 3.0 0.00 0.00 0.00 78 1016.6
20190715074204 66 100 0.0 3.0 0.00 0.00 0.00 78 1016.6
20190715073704 66 100 1.0 2.0 0.00 0.00 0.00 78 1016.5
20190715073204 66 100 0.0 0.0 0.00 0.00 0.00 77 1016.5
20190715072703 66 100 0.0 0.0 0.00 0.00 0.00 78 1016.4
20190715072204 66 100 0.0 0.0 0.00 0.00 0.00 77 1016.4
20190715071704 66 100 0.0 0.0 0.00 0.00 0.00 77 1016.3
20190715071204 66 100 0.0 0.0 0.00 0.00 0.00 77 1016.3
20190715070704 66 100 0.0 0.0 0.00 0.00 0.00 76 1016.4
20190715070204 66 100 0.0 2.0 0.00 0.00 0.00 76 1016.4
20190715065703 67 100 0.0 2.0 0.00 0.00 0.00 76 1016.3
20190715065204 67 100 0.0 5.0 0.00 0.00 0.00 76 1016.4
20190715064704 67 88 1.0 5.0 0.00 0.00 0.00 75 1016.5
20190715064204 67 57 2.0 5.0 0.00 0.00 0.00 75 1016.4
20190715063704 67 62 1.0 3.0 0.00 0.00 0.00 78 1016.5
20190715063204 67 54 1.0 3.0 0.00 0.00 0.00 78 1016.4
20190715062703 67 54 1.0 3.0 0.00 0.00 0.00 75 1016.4
20190715062204 67 273 0.0 2.0 0.00 0.00 0.00 76 1016.4
20190715061704 67 273 0.0 2.0 0.00 0.00 0.00 76 1016.4
20190715061205 67 273 0.0 0.0 0.00 0.00 0.00 75 1016.4
20190715060704 67 273 0.0 0.0 0.00 0.00 0.00 75 1016.4
20190715060204 67 273 0.0 0.0 0.00 0.00 0.00 75 1016.4
20190715055703 68 273 0.0 0.0 0.00 0.00 0.00 74 1016.4
20190715055204 68 273 0.0 0.0 0.00 0.00 0.00 73 1016.4
20190715054704 68 273 0.0 0.0 0.00 0.00 0.00 74 1016.3
20190715054203 68 273 0.0 0.0 0.00 0.00 0.00 73 1016.3
20190715053704 68 273 0.0 0.0 0.00 0.00 0.00 75 1016.3
20190715053204 68 273 0.0 0.0 0.00 0.00 0.00 74 1016.2
20190715052703 68 273 0.0 3.0 0.00 0.00 0.00 74 1016.3
20190715052204 69 273 0.0 3.0 0.00 0.00 0.00 73 1016.3
20190715051704 69 273 0.0 4.0 0.00 0.00 0.00 72 1016.3
20190715051204 69 273 1.0 4.0 0.00 0.00 0.00 70 1016.4
20190715050703 69 273 2.0 4.0 0.00 0.00 0.00 71 1016.4
20190715050204 69 271 1.0 4.0 0.00 0.00 0.00 73 1016.4
20190715045704 69 277 0.0 1.0 0.00 0.00 0.00 72 1016.5
20190715045204 69 261 0.0 4.0 0.00 0.00 0.00 72 1016.5
20190715044704 69 261 0.0 4.0 0.00 0.00 0.00 70 1016.4
20190715044204 69 261 0.0 2.0 0.00 0.00 0.00 70 1016.4
20190715043704 69 275 0.0 3.0 0.00 0.00 0.00 69 1016.4
20190715043204 70 275 1.0 4.0 0.00 0.00 0.00 67 1016.4
20190715042704 70 275 2.0 4.0 0.00 0.00 0.00 67 1016.2
20190715042204 69 275 2.0 4.0 0.00 0.00 0.00 66 1016.2
20190715041704 70 271 0.0 0.0 0.00 0.00 0.00 66 1016.2
20190715041204 69 234 0.0 0.0 0.00 0.00 0.00 67 1016.1
20190715040704 69 234 0.0 0.0 0.00 0.00 0.00 66 1016.0
20190715040204 70 234 0.0 0.0 0.00 0.00 0.00 69 1016.0
20190715035703 70 221 0.0 0.0 0.00 0.00 0.00 65 1016.0
20190715035204 70 220 0.0 0.0 0.00 0.00 0.00 68 1015.9
20190715034704 70 221 0.0 0.0 0.00 0.00 0.00 66 1015.9
20190715034204 71 220 0.0 0.0 0.00 0.00 0.00 66 1015.8
20190715033704 71 221 0.0 0.0 0.00 0.00 0.00 67 1015.8
20190715033204 71 220 0.0 0.0 0.00 0.00 0.00 67 1015.8
20190715032703 71 220 0.0 2.0 0.00 0.00 0.00 69 1015.7
20190715032205 71 220 0.0 2.0 0.00 0.00 0.00 68 1015.8
20190715031704 71 220 0.0 1.0 0.00 0.00 0.00 67 1015.8
20190715031204 71 162 0.0 0.0 0.00 0.00 0.00 69 1015.8
20190715030704 71 162 0.0 0.0 0.00 0.00 0.00 68 1015.8
20190715030205 71 162 0.0 0.0 0.00 0.00 0.00 66 1015.8
20190715025704 71 162 0.0 0.0 0.00 0.00 0.00 69 1015.8
20190715025204 71 162 0.0 0.0 0.00 0.00 0.00 66 1015.7
20190715024704 71 162 0.0 0.0 0.00 0.00 0.00 67 1015.7
20190715024204 71 162 0.0 0.0 0.00 0.00 0.00 68 1015.7
20190715023704 71 162 0.0 1.0 0.00 0.00 0.00 68 1015.7
20190715023204 71 162 0.0 2.0 0.00 0.00 0.00 67 1015.7
20190715022704 71 162 0.0 2.0 0.00 0.00 0.00 67 1015.7
20190715022204 71 162 0.0 2.0 0.00 0.00 0.00 67 1015.7
20190715021704 71 161 0.0 2.0 0.00 0.00 0.00 67 1015.8
20190715021203 72 161 0.0 2.0 0.00 0.00 0.00 67 1015.8